Location: Bühlhof
(48.7849°N, 8.6361°E)
Time: 14:42:22
(UTC+00:00)

Okean 1-7 - Pass Details

Date: 19 January 2026
Orbit: 566 x 588 km, 82.5° (Epoch: 16 February)

Event Time Altitude Azimuth Distance (km) Brightness Sun altitude
Rises 19:00:11 0° 209° (SSW) 2,757 6.7 -28.8°
Reaches altitude 10° 19:02:29 10° 217° (SW) 1,864 5.9 -29.1°
Enters shadow 19:05:28 33° 258° (WSW) 959 4.5 -29.6°
